Tracking 19636 objects as of 25-May-2019
HD Live streaming from Space Station
objects crossing your sky now

SJ-5

Track SJ-5 now!
10-day predictions
SJ-5 is classified as:


NORAD ID: 25731
Int'l Code: 1999-025B
Perigee: 845.1 km
Apogee: 871.4 km
Inclination: 99.1 °
Period: 102.0 minutes
Semi major axis: 7229 km
RCS: 1.539 m2 (large)
Launch date: May 10, 1999
Source: People's Republic of China (PRC)
Launch site: Taiyaun Space Center, China (TSC)
aabbcc
Your satellite tracking list
Your tracking list is empty




NASA's NSSDC Master Catalog

Two Line Element Set (TLE):
1 25731U 99025B   19144.11292559 -.00000016  00000-0  15979-4 0  9999
2 25731  99.0533 165.8498 0018203  98.3790 261.9446 14.12415017 32777
Source of the keplerian elements: AFSPC